Погода в Прокудском

Россия / Новосибирская область     55°00′35″N   82°27′33″E
темп.,
°C
ветер,
м/с
пор.,
м/с
влажн.,
%
обл.,
%
осадки,
мм/ч
давл.,
гПа
погр.,
м
5 декабря, вс
вс501:00−4юз51193100 0.1 1029382
04:00−4ююз5993100 0.0 1030305
07:00−4ююз5994100 0.0 1028284
10:00−3ююз61193100 0.0 1026356
13:00−3ююз61293100 0.0 1025411
16:00−1ююз51191100 0.0 1023401
19:000ююз61392100 0.0 1022482
22:00−1юз7149199 0.0 1022448
6 декабря, пн
пн601:00−3ююз6159198 0.0 1021336
04:00−3юз6149098 0.0 1021326
07:00−3ююз6139096 0.0 1020291
10:00−4ююз41091100 0.0 1020225
13:00−4ююз41088100 0.0 1020254
16:00−5ю3791100 0.0 1018121
19:00−7ююз3892100 0.0 1017125
22:00−5ююз41192100 0.0 1016250
7 декабря, вт
вт701:00−3ююз61389100 0.0 1015448
04:00−3юз61296100 1.3 1013489
07:00−2юз61392100 2.4 1013682
10:00−3зюз71293100 0.3 1014653
13:00−4з81387100 0.4 1017776
16:00−8з71389100 0.1 1020594
19:00−12з71389100 0.1 1025473
22:00−14з51091100 0.0 1030363
8 декабря, ср
ср801:00−20зюз37985 0.1 103492
04:00−23зюз37985 0.0 103683
07:00−25юз34985 0.0 103850
10:00−26юз34985 0.0 103948
13:00−22юз26975 0.0 1039130
16:00−23ююз22975 0.0 103831
19:00−25юз34995 0.0 103949
22:00−26зюз24995 0.0 104048
9 декабря, чт
чт901:00−27юз22995 0.0 104135
04:00−27юз24999 0.0 104246
07:00−27юз24995 0.0 104341
10:00−26юз35975 0.0 104464
13:00−22юз369695 0.0 1045155
16:00−21ююз3695100 0.0 104592
19:00−21ююз499484 0.0 1045132
22:00−20ююз499274 0.0 1045180